GSLV R/B (43865 NORAD) Tracking and Keplerian Element Data

This shows tracking and keplerian element data for the satellite.

Feedback or suggestion? Click here.




ElementValue
Catalog43865
NameGSLV R/B
Epoch Orbit59
Epoch Day16.32086917
Epoch Year2019
RAAN182.8918
Inclination19.4612
Eccentricity0.7466676
Argument of Perigee196.7272
Mean Anonmoly109.0161
Mean Motion2.09705933
Decay Rate0.00018222
L11 43865U 18105B 19016.32086917 .00018222 -17473-6 30637-3 0 9990
L22 43865 19.4612 182.8918 7466676 196.7272 109.0161 2.09705933 594

Live tracking and technical data element details for GSLV R/B (NORAD 43865). GSLV R/B can be tracked NOW for your location showing map with azimuth and elevation plus other details from your city location.

Track the satellite on the map from your city or location and see movement details for azimuth, elevation, latitude, longitude, range, height, and movement on the map or in text.







IsCatalogInMostPopularTable: catalog: 43865, numindb: 20
Update: records affected: 1



GetName: 43865 GSLV R/B

Hit Count: updated at: Thu, 17 Jan 2019 14:48:02 GMT